Regional Weather Roundup
Issued by NWS

Home | Current Version | Previous Version | Graphics & Text | Print | Product List | Glossary On
Versions: 1 2 3 4 5 6 7 8 9 10 11 12 13 14 15 16 17 18 19 20 21 22 23 24 25 26 27 28 29 30 31 32 33 34 35 36 37 38 39 40 41 42 43 44 45 46 47 48 49 50
000
ASUS43 KLSX 231759
RWRMO

WEATHER SUMMARY FOR MISSOURI
NATIONAL WEATHER SERVICE SPRINGFIELD MO
100 PM CDT SUN APR 23 2017

NOTE: "FAIR" INDICATES FEW OR NO CLOUDS BELOW 12,000 FEET WITH NO
       SIGNIFICANT WEATHER AND/OR OBSTRUCTIONS TO VISIBILITY.
       CURRENT SKY AND/OR WEATHER CONDITIONS ARE NOT AVAILABLE FOR
       CHILLICOTHE AND FARMINGTON.

MOZ001>031-035>038-043-044-053-054-231900-
...NORTHERN AND WESTERN MISSOURI...

CITY           SKY/WX    TMP DP  RH WIND       PRES   REMARKS
KANSAS CTY INT MOSUNNY   65  32  29 VRB3      30.14F
6HR MIN TEMP:  42; 6HR MAX TEMP:  66;

KANSAS C DTWN  SUNNY     67  30  25 VRB3      30.13F
6HR MIN TEMP:  41; 6HR MAX TEMP:  68;

LEE`S SUMMIT   SUNNY     65  31  28 S5        30.13F
6HR MIN TEMP:  42; 6HR MAX TEMP:  65;

ST JOSEPH      SUNNY     66  32  28 CALM      30.13F
6HR MIN TEMP:  34; 6HR MAX TEMP:  66;

CHILLICOTHE      N/A     68  31  25 CALM      30.13F
6HR MIN TEMP:  36; 6HR MAX TEMP:  68;

KIRKSVILLE     SUNNY     68  33  27 NE8       30.12F
6HR MIN TEMP:  35; 6HR MAX TEMP:  68;


$$
MOZ066>068-077>081-088>096-101>105-231900-
...SOUTHWEST MISSOURI...

CITY           SKY/WX    TMP DP  RH WIND       PRES   REMARKS
SPRINGFIELD    SUNNY     64  36  35 N12       30.10F
6HR MIN TEMP:  40; 6HR MAX TEMP:  64;

JOPLIN         SUNNY     63  38  39 NE7       30.14F
6HR MIN TEMP:  38; 6HR MAX TEMP:  63;

BRANSON        SUNNY     63  36  36 N12       30.09F

$$
MOZ032>034-039>042-045>050-055>058-069>072-231900-
...CENTRAL MISSOURI...

CITY           SKY/WX    TMP DP  RH WIND       PRES   REMARKS
COLUMBIA       SUNNY     67  34  29 N15       30.11F
6HR MIN TEMP:  38; 6HR MAX TEMP:  67;

JEFFERSON CITY SUNNY     68  31  25 VRB3      30.10F
6HR MIN TEMP:  41; 6HR MAX TEMP:  68;

ROLLA          SUNNY     63  35  35 NE13      30.08F
6HR MIN TEMP:  39; 6HR MAX TEMP:  64;

OSAGE BEACH    SUNNY     64  32  30 NE10      30.11F

$$
MOZ051-052-059>065-231900-
...EAST CENTRAL MISSOURI...

CITY           SKY/WX    TMP DP  RH WIND       PRES   REMARKS
ST LOUIS INTL  SUNNY     68  30  24 NE14G22   30.07F
6HR MIN TEMP:  47; 6HR MAX TEMP:  68;

SPIRIT OF STL  SUNNY     66  34  30 N14       30.07F
6HR MIN TEMP:  37; 6HR MAX TEMP:  67;

ST CHARLES     SUNNY     68  35  29 N9G17     30.07F
6HR MIN TEMP:  46; 6HR MAX TEMP:  68;


$$
MOZ072>076-082>087-097>100-106>115-231900-
...SOUTH CENTRAL AND SOUTHEAST MISSOURI...

CITY           SKY/WX    TMP DP  RH WIND       PRES   REMARKS
CAPE GIRARDEAU SUNNY     63  43  48 N18G26    29.97F
6HR MIN TEMP:  48; 6HR MAX TEMP:  63;

FARMINGTON     SUNNY     62  36  37 N13       30.04F
6HR MIN TEMP:  42; 6HR MAX TEMP:  62;

POPLAR BLUFF   SUNNY     64  42  44 N20       29.97F
6HR MIN TEMP:  48; 6HR MAX TEMP:  64;

WEST PLAINS    SUNNY     65  37  35 N12G23    30.04F
6HR MIN TEMP:  44; 6HR MAX TEMP:  65;


$$




USA.gov is the U.S. government's official web portal to all federal, state and local government web resources and services.